RESURS O1

导读

RESURS-O1是独联体(CIS)于1994年11月4日08:00发射的遥感卫星,隶属于“资源”系列地球观测项目,主要用于获取陆地资源遥感影像,支持环境监测、农业估产、灾害评估与地质勘探等领域研究。该卫星延续了苏联对地观测技术体系,继承了早期Resurs系列卫星的设计框架,携带多光谱光学成像载荷,为独联体及全球提供地球表面观测数据,是冷战后独联体开展空间对地观测的重要早期卫星。

基本信息
目录编号:
23342
目录名称:
RESURS O1
国际标识:
1994-074A
轨道中心:
EARTH
卫星名称:
RESURS O1
卫星全名:
--
卫星状态:
在轨 (已飞行11635 天)
发射日期:
1994-11-04 UTC
国别 :
俄罗斯(独联体) (CIS)
星等 :
--
该卫星已列入 空间交会检测服务 Space Conjunction Data Service (SCDS) ,当前飞行风险评估等级: 无高风险
轨道信息
数据来源 国际轨道数据 AOE轨道数据
星历时间 2026-09-11T22:06:29+0800
16小时前
查看轨道信息
2026-09-10T23:00:00+0800
1天前
查看轨道信息
半长轴 6991.176km 6991.164km
偏心率 0.0001932 0.0001992
轨道倾角 97.662° 97.662°
近地点辐角 107.070° 109.150°
升交点赤经 269.815° 268.889°
平近点角 253.073° 146.239°
近地点 611.688km 611.634km
远地点 614.39km 614.42km
周期 96.958分钟 96.958分钟
每日圈数 14.851743 14.851782
详细信息
使用方式:
暂无
2D轨道图
3D轨道图
轨道高度分析图
轨道倾角分析图
轨道综合分析图
查看轨道综合分析图
交会数据列表
事件ID 空间交会对象 最接近时刻(TCA) 交会距离 交会风险概率(CRP) 交会风险指数(CRI) 操作
CDM_260913-055302-334206-512127
2026-09-13T
05:53:34+0000
0.691 km
远距离
8.564123E-5 中风险 0.74
CDM_260913-203401-470002-334225
2026-09-13T
20:34:13+0000
0.932 km
远距离
1.533362E-5 中风险 0.59
CDM_260913-060902-334208-914626
2026-09-13T
06:09:33+0000
2.171 km
极远距离
1.806247E-6 低风险 0.4
与全量物体交会距离演化趋势
与全量物体交会风险概率演化趋势